[[{"header":{"parameterUnit":"m.s-1","parameterCategory":1,"la1":30.2991,"la2":30.254,"lo1":-89.0895,"lo2":-89.0444,"dy":0.0017,"dx":0.0017,"nx":28,"ny":28,"refTime":"2025-03-29T21:00:00:Z","depth":0,"parameterNumber":2,"parameterNumberName":"U-component_of_WINDS"},"data":[0,0,0,0,0,0,0,0,0,0,0,0,0,0,0,0,0,0,0,0,0,0,0,0,0,0,0,0,0,0,0,0,0,0,0,0,0,0,0,0,0,0,0,0,0,0,0,0,0,0,0,0,0,0,0,0,0,0,-1.4922,-1.4923,0,-1.4973,-1.4973,-1.4974,-1.4986,-1.4985,-1.4985,-1.4985,-1.5036,-1.5037,-1.5039,0,0,0,0,0,0,0,0,0,0,0,0,0,-1.4834,-1.4836,-1.4922,-1.4923,-1.4923,-1.4973,-1.4973,-1.4974,-1.4986,-1.4985,-1.4985,-1.4985,-1.5035,-1.5037,-1.5039,0,0,0,0,0,0,0,0,0,0,0,0,0,-1.4877,-1.4836,-1.4922,-1.4935,-1.4937,-1.4973,-1.4973,-1.4974,-1.4986,-1.4985,-1.4985,-1.4984,-1.5035,-1.5037,-1.5039,-1.5065,0,0,-1.5047,-1.5048,0,0,0,0,0,0,0,0,-1.4875,-1.4881,-1.4933,-1.4934,-1.4936,-1.4972,-1.4961,-1.5005,-1.4986,-1.4967,-1.4985,-1.4984,-1.5015,-1.5019,-1.503,-1.5068,-1.507,-1.5047,-1.5049,-1.505,-1.5051,0,0,0,0,0,0,0,-1.4872,-1.4879,-1.4942,-1.4933,-1.4936,-1.4938,-1.4944,-1.497,-1.4993,-1.4969,-1.497,-1.4976,-1.5016,-1.5027,-1.5031,-1.5071,-1.5047,-1.505,-1.5051,-1.5052,-1.5132,-1.5132,0,0,0,0,0,0,-1.4867,-1.4876,-1.4941,-1.4944,-1.4904,-1.494,-1.4946,-1.4961,-1.4993,-1.4998,-1.4976,-1.4976,-1.5023,-1.5028,-1.5033,-1.5065,-1.505,-1.5052,-1.5054,-1.5131,-1.5132,-1.5133,0,0,0,0,0,0,-1.4865,-1.4872,-1.4939,-1.491,-1.4919,-1.4942,-1.4959,-1.4963,-1.4974,-1.4999,-1.5003,-1.4983,-1.5023,-1.5029,-1.5057,-1.5067,-1.5054,-1.5056,-1.513,-1.5131,-1.5132,-1.5129,0,0,0,0,0,0,-1.4862,-1.4872,-1.4882,-1.491,-1.492,-1.4962,-1.496,-1.4964,-1.4978,-1.4979,-1.5007,-1.5011,-1.5023,-1.5053,-1.506,-1.507,-1.5058,-1.513,-1.5131,-1.5132,-1.5128,-1.5129,-1.513,0,0,0,0,0,-1.4859,-1.4879,-1.4883,-1.489,-1.4934,-1.4963,-1.4968,-1.4983,-1.4979,-1.4989,-1.5005,-1.501,-1.5065,-1.5056,-1.5063,-1.5074,-1.5129,-1.5131,-1.5132,-1.5127,-1.5129,-1.513,0,0,0,0,0,0,-1.4852,-1.4883,-1.4887,-1.4917,-1.4937,-1.4965,-1.4978,-1.4984,-1.5005,-1.5005,-1.5021,-1.5027,-1.5054,-1.5067,-1.5057,-1.5101,-1.5097,-1.51,-1.5091,-1.5093,-1.5094,-1.509,-1.506,0,0,0,0,0,-1.4853,-1.4875,-1.4901,-1.4925,-1.4935,-1.4955,-1.4968,-1.4977,-1.4998,-1.5007,-1.5025,-1.5045,-1.5067,-1.5081,-1.5102,-1.513,-1.5136,-1.5141,-1.5143,-1.5143,-1.5145,-1.516,-1.5163,-1.5137,-1.5137,-1.5137,0,0,-1.4857,-1.4877,-1.4889,-1.4924,-1.494,-1.4961,-1.4962,-1.4984,-1.5,-1.501,-1.5037,-1.5051,-1.5075,-1.5102,-1.5116,-1.5114,-1.5154,-1.5145,-1.5146,-1.5147,-1.5162,-1.5165,-1.5167,-1.5138,-1.5138,-1.5138,0,0,-1.4875,-1.4892,-1.4914,-1.493,-1.4955,-1.4968,-1.4973,-1.5,-1.501,-1.5037,-1.5045,-1.5064,-1.5101,-1.5117,-1.5131,-1.5154,-1.5158,-1.516,-1.5166,-1.5181,-1.5183,-1.5185,-1.5192,-1.5195,-1.5162,-1.5162,-1.5162,0,-1.4876,-1.4909,-1.4924,-1.4946,-1.496,-1.497,-1.4992,-1.5007,-1.5038,-1.5047,-1.5045,-1.5092,-1.5109,-1.514,-1.5146,-1.5156,-1.5162,-1.5157,-1.5181,-1.5183,-1.5185,-1.5193,-1.5195,-1.5162,-1.5162,-1.5162,-1.5162,0,-1.4909,-1.4931,-1.4945,-1.4974,-1.499,-1.5012,-1.503,-1.5044,-1.5052,-1.5065,-1.5092,-1.5113,-1.5138,-1.5146,-1.5154,-1.5179,-1.5177,-1.5178,-1.5174,-1.5188,-1.5195,-1.5198,-1.5162,-1.5162,-1.5162,-1.5162,0,0,-1.4923,-1.496,-1.4965,-1.4977,-1.5006,-1.5023,-1.5045,-1.507,-1.5081,-1.5102,-1.512,-1.5151,-1.5152,-1.5167,-1.5177,-1.519,-1.5206,-1.5189,-1.519,-1.5191,-1.5233,-1.5231,-1.5234,-1.5209,-1.521,-1.521,-1.5231,0,-1.4943,-1.4982,-1.4996,-1.5028,-1.5048,-1.5058,-1.5077,-1.5096,-1.5109,-1.5127,-1.5142,-1.5163,-1.5163,-1.5172,-1.5186,-1.5201,-1.5214,-1.52,-1.5225,-1.5226,-1.5218,-1.5238,-1.5236,-1.5254,-1.5233,-1.5234,-1.5234,0,-1.4972,-1.4993,-1.5026,-1.5051,-1.506,-1.5077,-1.51,-1.5119,-1.514,-1.5149,-1.5165,-1.5174,-1.5196,-1.5192,-1.5222,-1.5212,-1.5224,-1.5233,-1.5234,-1.5236,-1.523,-1.524,-1.5261,-1.5263,-1.5239,-1.5239,-1.5238,0,-1.4977,-1.5014,-1.5039,-1.505,-1.508,-1.5091,-1.5104,-1.5125,-1.5139,-1.516,-1.5168,-1.5191,-1.5204,-1.5221,-1.5236,-1.5231,-1.5265,-1.5262,-1.5272,-1.5271,-1.5278,-1.5277,-1.53,-1.5287,-1.5287,-1.5287,-1.5286,0,-1.4998,-1.5018,-1.5041,-1.5056,-1.5079,-1.5095,-1.5116,-1.513,-1.5149,-1.5166,-1.5177,-1.5193,-1.5212,-1.523,-1.5242,-1.5265,-1.5271,-1.5278,-1.528,-1.5276,-1.5275,-1.5283,-1.5282,-1.5287,-1.5287,-1.5287,-1.5287,0,-1.5007,-1.5024,-1.5051,-1.5078,-1.5085,-1.51,-1.5122,-1.5137,-1.515,-1.5172,-1.5178,-1.5199,-1.5222,-1.5238,-1.5267,-1.5275,-1.5299,-1.5302,-1.5292,-1.5293,-1.5302,-1.53,-1.533,-1.5334,-1.5319,-1.5319,-1.5319,0,-1.5019,-1.5034,-1.5062,-1.5075,-1.5087,-1.5108,-1.5122,-1.5138,-1.5152,-1.5177,-1.5189,-1.5212,-1.5231,-1.5266,-1.5284,-1.5306,-1.5309,-1.5318,-1.5313,-1.5308,-1.5308,-1.5307,-1.5308,-1.5319,-1.5319,-1.5319,-1.5319,0,-1.5037,-1.5045,-1.5064,-1.5087,-1.5103,-1.5122,-1.5141,-1.515,-1.517,-1.5185,-1.5208,-1.5223,-1.5252,-1.5275,-1.5299,-1.5312,-1.5318,-1.5321,-1.5324,-1.5319,-1.5312,-1.5315,-1.5293,-1.532,-1.5319,-1.5319,-1.5319,-1.5319,-1.5048,-1.5062,-1.5083,-1.5104,-1.512,-1.5137,-1.5152,-1.5167,-1.5187,-1.5212,-1.522,-1.5244,-1.5264,-1.5297,-1.531,-1.5329,-1.5329,-1.5334,-1.5335,-1.5336,-1.5335,-1.531,-1.5333,-1.5333,-1.5333,-1.5333,-1.5333,0,-1.5066,-1.508,-1.5099,-1.5125,-1.5142,-1.5147,-1.5168,-1.5181,-1.5202,-1.5221,-1.5239,-1.5265,-1.5287,-1.5307,-1.5329,-1.534,-1.5344,-1.5345,-1.5344,-1.5347,-1.5334,-1.5329,-1.5342,-1.5342,-1.5342,-1.5342,-1.5342,-1.5342,-1.5077,-1.51,-1.511,-1.5141,-1.5155,-1.5178,-1.519,-1.5205,-1.5221,-1.5249,-1.5267,-1.528,-1.5299,-1.5323,-1.5343,-1.5348,-1.5355,-1.5356,-1.5362,-1.5349,-1.5348,-1.5347,-1.5342,-1.5358,-1.5358,-1.5373,-1.5373,-1.5373]},{"header":{"parameterUnit":"m.s-1","parameterCategory":1,"la1":30.2991,"la2":30.254,"lo1":-89.0895,"lo2":-89.0444,"dy":0.0017,"dx":0.0017,"nx":28,"ny":28,"refTime":"2025-03-29T21:00:00:Z","depth":0,"parameterNumber":3,"parameterNumberName":"V-component_of_WINDS"},"data":[0,0,0,0,0,0,0,0,0,0,0,0,0,0,0,0,0,0,0,0,0,0,0,0,0,0,0,0,0,0,0,0,0,0,0,0,0,0,0,0,0,0,0,0,0,0,0,0,0,0,0,0,0,0,0,0,0,0,3.9606,3.9605,0,3.9493,3.9491,3.949,3.9464,3.9465,3.9466,3.9467,3.9341,3.9337,3.9333,0,0,0,0,0,0,0,0,0,0,0,0,0,3.9797,3.9793,3.9607,3.9605,3.9604,3.9493,3.9491,3.949,3.9464,3.9465,3.9466,3.9467,3.9342,3.9337,3.9332,0,0,0,0,0,0,0,0,0,0,0,0,0,3.9701,3.9792,3.9607,3.9578,3.9574,3.9493,3.9491,3.9489,3.9464,3.9465,3.9466,3.9468,3.9344,3.9338,3.9332,3.9269,0,0,3.9313,3.931,0,0,0,0,0,0,0,0,3.9707,3.9694,3.9584,3.958,3.9575,3.9494,3.9512,3.9415,3.9464,3.9505,3.9467,3.9468,3.939,3.938,3.9356,3.9263,3.9257,3.9312,3.9308,3.9306,3.9304,0,0,0,0,0,0,0,3.9714,3.9699,3.9561,3.9582,3.9577,3.9569,3.9557,3.9494,3.9442,3.9502,3.95,3.9487,3.9388,3.9362,3.9353,3.9255,3.9312,3.9307,3.9303,3.9301,3.911,3.9109,0,0,0,0,0,0,3.9726,3.9705,3.9565,3.9558,3.9646,3.9565,3.9551,3.9519,3.9443,3.9432,3.9486,3.9486,3.9372,3.936,3.9348,3.9273,3.9306,3.93,3.9296,3.9112,3.911,3.9108,0,0,0,0,0,0,3.973,3.9714,3.9569,3.9631,3.9612,3.956,3.9524,3.9516,3.949,3.9431,3.9421,3.9469,3.9372,3.9357,3.929,3.9268,3.9297,3.9292,3.9113,3.9111,3.9109,3.9119,0,0,0,0,0,0,3.9736,3.9716,3.9692,3.9631,3.9609,3.9515,3.9523,3.9513,3.948,3.9479,3.9412,3.9402,3.9372,3.93,3.9284,3.926,3.9287,3.9115,3.9112,3.911,3.912,3.9118,3.9115,0,0,0,0,0,3.9743,3.9696,3.9691,3.9674,3.9578,3.9514,3.9501,3.947,3.9478,3.9454,3.9417,3.9404,3.9273,3.9293,3.9275,3.9249,3.9116,3.9113,3.911,3.9122,3.9118,3.9115,0,0,0,0,0,0,3.975,3.9687,3.968,3.9613,3.957,3.9509,3.9477,3.9466,3.9416,3.9417,3.9378,3.9363,3.93,3.9267,3.9291,3.9186,3.9195,3.9188,3.921,3.9206,3.9203,3.9212,3.9282,0,0,0,0,0,3.9745,3.97,3.9646,3.9592,3.9571,3.9528,3.9498,3.948,3.9431,3.9412,3.9369,3.9321,3.927,3.9236,3.9185,3.9117,3.9103,3.909,3.9087,3.9085,3.9079,3.9045,3.9039,3.9098,3.9098,3.9099,0,0,3.9732,3.9692,3.9665,3.9593,3.9556,3.951,3.9512,3.9461,3.9426,3.9402,3.9339,3.9307,3.9251,3.9185,3.9153,3.9156,3.9061,3.9081,3.908,3.9075,3.9041,3.9036,3.9031,3.9096,3.9097,3.9097,0,0,3.9684,3.9649,3.9602,3.9568,3.9516,3.9489,3.9478,3.9421,3.94,3.9337,3.932,3.9277,3.9187,3.915,3.9119,3.9065,3.9052,3.9049,3.9034,3.9001,3.8997,3.8992,3.8975,3.8969,3.9044,3.9044,3.9044,0,3.9673,3.9605,3.9578,3.9531,3.95,3.9482,3.9435,3.9401,3.9333,3.9312,3.9317,3.921,3.917,3.9097,3.9085,3.9059,3.9046,3.9055,3.9,3.8995,3.8991,3.8974,3.8967,3.9044,3.9044,3.9044,3.9044,0,3.9595,3.9548,3.9516,3.9458,3.9423,3.9375,3.9341,3.931,3.9295,3.9268,3.9205,3.9159,3.91,3.9081,3.9064,3.9007,3.901,3.9008,3.9015,3.8986,3.8969,3.8963,3.9044,3.9044,3.9044,3.9044,0,0,3.9544,3.9477,3.9466,3.9441,3.9385,3.9347,3.93,3.9247,3.9222,3.9177,3.9137,3.9066,3.9066,3.9031,3.9009,3.898,3.8944,3.8982,3.898,3.8978,3.8881,3.8884,3.8877,3.8937,3.8935,3.8934,3.8887,0,3.9491,3.9409,3.9387,3.9317,3.9275,3.926,3.922,3.9181,3.9155,3.9114,3.9085,3.9036,3.9038,3.9018,3.8989,3.8955,3.8924,3.8958,3.8898,3.8896,3.8913,3.8868,3.8869,3.8826,3.888,3.8879,3.8878,0,3.9416,3.9377,3.9304,3.926,3.9241,3.9205,3.9157,3.9119,3.9075,3.9059,3.9024,3.9007,3.8958,3.897,3.8902,3.8925,3.89,3.888,3.8878,3.887,3.8885,3.886,3.8811,3.8805,3.8867,3.8868,3.8869,0,3.939,3.9317,3.9266,3.9245,3.919,3.9166,3.9142,3.91,3.9072,3.9029,3.9011,3.8962,3.8935,3.8898,3.8869,3.888,3.8804,3.8813,3.8789,3.879,3.8771,3.8773,3.8719,3.8755,3.8755,3.8755,3.8756,0,3.9333,3.9289,3.9254,3.9222,3.9174,3.915,3.9102,3.9076,3.9041,3.9003,3.8987,3.8952,3.8916,3.8876,3.8852,3.8801,3.8788,3.8774,3.8768,3.8775,3.8777,3.8757,3.876,3.8754,3.8754,3.8754,3.8755,0,3.9293,3.9268,3.9212,3.9168,3.9156,3.9122,3.9083,3.9052,3.9029,3.8982,3.897,3.8931,3.8885,3.8853,3.8791,3.8776,3.8721,3.8715,3.8736,3.8734,3.8712,3.8715,3.8643,3.8633,3.8676,3.8676,3.8675,0,3.9258,3.9225,3.918,3.9157,3.9134,3.9094,3.9067,3.9043,3.9015,3.8967,3.8941,3.8895,3.8856,3.8781,3.8747,3.8701,3.8694,3.8673,3.8687,3.8697,3.8696,3.8698,3.8696,3.867,3.8669,3.8669,3.8669,0,3.92,3.9191,3.9154,3.9114,3.9084,3.905,3.9016,3.8997,3.8966,3.8936,3.8891,3.8861,3.8802,3.8756,3.8708,3.8681,3.867,3.8666,3.8658,3.8665,3.8679,3.8673,3.8731,3.8667,3.8667,3.8667,3.8667,3.8667,3.9162,3.9134,3.91,3.9061,3.9034,3.9005,3.8975,3.8951,3.8913,3.8866,3.8853,3.8807,3.8768,3.8703,3.8677,3.8639,3.8641,3.8629,3.8626,3.8623,3.8625,3.8687,3.863,3.863,3.863,3.863,3.863,0,3.9104,3.9083,3.9048,3.9005,3.8974,3.8972,3.8936,3.891,3.887,3.8837,3.8801,3.8751,3.8708,3.8673,3.8629,3.8606,3.86,3.8595,3.8596,3.8591,3.8624,3.8637,3.8601,3.8601,3.8601,3.8601,3.8601,3.8601,3.9071,3.9025,3.9013,3.8955,3.8933,3.8891,3.8871,3.8843,3.8818,3.8764,3.873,3.8709,3.8675,3.863,3.859,3.8581,3.8566,3.8562,3.8552,3.8584,3.8587,3.8591,3.8602,3.8559,3.8559,3.8521,3.8521,3.8521]}]]